Wind_Speed
12 12 12 13 13 13 14 14 14 14 14 14 14 14 14 14 14 14 14 14 14 14 14 15 15 16 16 16 17 16 16 16 16 17 17 16 16 17 17 17 17 18 18 18 18 18 17 17 17 17 16 16 16 16 16 16 16 18 19 20 19 19 19 16 15 17 18 18 17 17 18 21 19 18 21 22 21 20 18 15 16 19 17 16 17 18 19 19
14 14 14 15 15 15 15 16 16 16 15 15 16 16 16 16 16 16 16 16 16 16 16 16 16 16 16 17 17 17 17 17 16 18 18 18 18 18 18 18 18 18 18 18 19 19 18 18 18 18 18 18 18 18 18 17 18 19 21 23 21 19 20 18 17 18 19 20 20 20 20 22 21 21 23 24 24 22 20 15 16 19 16 16 19 20 20 19
16 16 16 16 17 17 17 17 17 17 17 17 17 17 17 17 18 18 18 18 18 18 19 18 18 18 18 18 18 18 18 17 16 17 18 19 18 18 18 19 19 18 18 19 19 19 19 19 19 19 19 19 20 19 19 19 20 21 22 24 22 19 21 20 18 18 20 22 23 22 22 23 22 24 26 27 27 24 20 17 17 19 17 17 20 21 19 18
17 18 18 18 18 18 18 18 19 19 19 18 18 19 19 19 19 19 19 20 20 20 20 20 20 20 20 20 21 20 20 19 17 17 17 17 16 16 16 17 18 17 17 17 18 18 18 18 19 19 19 20 20 20 20 20 21 24 25 25 23 21 23 22 19 20 21 23 25 24 24 25 24 26 28 29 30 26 20 17 19 20 20 20 20 19 19 18
19 19 19 19 18 19 19 19 19 19 19 20 19 20 20 20 20 20 20 20 21 21 21 21 21 22 22 22 22 22 22 20 16 15 16 16 17 17 17 17 18 18 18 18 18 19 19 19 20 19 20 21 21 21 21 20 22 26 28 26 24 23 25 23 21 22 23 24 26 26 26 26 27 27 28 30 32 27 21 19 21 22 23 23 21 20 19 19
19 20 19 19 19 19 19 20 20 20 20 20 20 20 21 21 21 21 21 21 21 21 21 22 22 22 22 23 23 23 23 19 16 18 20 20 21 20 20 19 20 20 21 21 22 22 21 22 21 21 22 22 23 23 22 23 24 28 29 27 25 25 26 25 24 25 25 25 26 26 27 28 29 29 29 33 33 27 23 22 23 23 23 24 22 21 21 21
20 20 20 20 20 20 20 21 21 21 21 21 22 22 22 22 22 22 22 22 22 23 23 23 23 23 23 24 24 25 25 21 17 21 24 23 22 22 21 20 20 21 21 22 22 23 22 22 22 21 23 23 24 24 24 24 26 29 30 28 26 26 27 26 26 27 27 27 27 28 29 28 30 32 33 36 34 28 24 23 23 23 23 24 23 22 23 23
22 22 22 22 21 21 22 22 22 22 22 23 23 23 23 23 23 23 23 23 24 24 24 24 24 24 24 25 26 27 27 20 17 20 22 22 22 21 21 21 21 21 21 22 22 22 22 22 22 22 23 24 25 25 25 26 27 30 29 28 27 28 28 28 29 30 30 30 29 31 30 29 30 34 38 38 34 30 25 24 25 25 24 25 25 25 25 26
23 23 23 23 23 23 23 23 23 23 24 24 24 24 24 24 24 24 24 24 24 25 25 25 26 25 26 26 27 30 25 17 16 19 21 22 21 21 21 22 23 23 23 23 24 24 23 24 24 24 25 25 26 27 26 28 29 30 30 29 30 30 30 30 32 32 32 31 32 33 32 29 29 35 40 36 33 30 26 26 27 27 27 27 28 28 27 27
25 25 25 24 24 24 24 24 24 24 24 25 25 25 24 24 24 24 24 24 24 25 25 26 26 26 27 26 28 29 21 17 19 20 22 23 23 23 23 24 24 25 25 26 26 26 26 26 26 26 27 28 28 28 28 29 31 32 32 33 33 32 32 33 34 33 33 34 34 35 33 30 29 35 39 33 30 30 28 28 28 28 29 28 29 29 29 29
26 26 26 26 26 26 25 25 25 26 26 26 26 26 26 25 25 25 25 25 25 26 26 26 26 27 27 27 29 27 20 21 22 21 23 22 22 23 24 25 26 26 27 27 27 27 27 27 28 28 28 28 28 29 30 31 32 33 34 35 34 34 35 36 36 34 35 35 35 35 34 32 31 35 36 30 29 30 29 29 29 29 30 29 30 30 31 31
28 28 28 27 28 27 27 27 27 27 28 28 28 28 27 27 27 26 26 26 26 27 27 27 28 28 28 28 28 25 24 25 25 23 23 21 21 23 24 25 26 27 28 28 28 28 28 28 29 28 28 29 29 29 30 31 32 34 35 36 36 37 37 37 36 34 35 35 36 35 35 36 35 34 32 29 30 31 31 31 29 31 31 30 31 31 33 33
28 28 28 28 28 28 28 28 28 28 28 29 28 28 28 28 27 27 27 27 27 27 27 28 29 29 30 30 26 26 27 27 27 26 24 23 23 23 25 26 27 28 29 29 29 29 29 30 30 29 29 29 29 29 31 32 34 35 36 38 38 39 38 36 34 33 34 35 37 35 35 39 37 33 30 30 32 33 33 32 31 33 33 33 32 33 34 34
27 28 28 28 28 28 28 28 28 28 28 28 28 28 28 28 28 28 28 28 27 28 28 28 28 29 31 30 26 27 29 28 29 28 26 25 25 25 26 27 28 28 28 28 28 28 29 30 30 29 28 28 28 28 31 34 35 35 36 38 37 37 38 35 32 33 34 35 37 36 37 43 40 34 30 30 33 35 35 35 34 35 35 36 35 35 35 35
28 28 28 28 28 28 28 28 28 28 28 28 28 28 28 28 28 28 28 28 28 28 28 28 28 29 32 30 27 28 28 27 27 26 26 26 24 25 26 27 28 28 28 29 29 29 29 30 30 29 27 26 26 27 31 33 33 32 34 36 36 37 38 33 28 30 34 37 40 38 39 45 43 35 30 31 34 37 38 39 38 39 38 38 38 37 35 34
28 28 28 28 28 28 28 28 28 28 29 28 28 29 28 28 28 28 28 28 28 28 28 28 28 29 31 30 28 27 27 27 27 26 26 25 25 26 26 27 28 28 29 30 30 30 31 32 31 30 29 27 26 28 32 33 33 33 35 38 38 38 38 33 28 30 35 41 44 42 43 47 45 38 34 33 33 36 41 42 41 41 40 39 38 35 33 32
28 27 28 28 27 28 28 28 28 28 29 29 28 29 29 29 29 29 29 29 28 28 28 29 29 32 33 31 29 27 25 25 25 24 23 23 25 26 26 27 27 28 28 28 29 30 31 32 31 30 28 26 26 28 30 31 33 35 36 39 39 36 35 35 33 30 32 41 46 47 50 53 48 41 38 35 34 37 41 43 43 42 40 37 35 34 34 34
27 27 27 27 27 27 27 28 28 27 28 29 29 29 29 30 30 30 29 30 30 30 31 30 30 32 31 27 25 24 23 24 25 25 25 26 28 28 29 29 29 30 30 30 31 32 32 32 31 29 27 27 27 27 30 31 35 38 37 38 39 37 36 36 36 32 32 41 45 48 53 54 49 44 41 38 36 38 42 44 44 42 38 36 35 35 35 34
27 27 27 27 27 27 27 27 27 27 27 28 29 29 30 30 30 31 31 31 30 30 31 31 30 32 30 26 27 29 29 29 30 30 29 30 31 31 31 31 32 32 33 33 34 34 33 33 33 31 32 34 32 32 34 35 37 39 39 40 40 40 41 40 39 35 32 40 45 46 52 54 50 47 44 41 40 41 43 43 42 41 39 37 36 35 32 29
28 28 27 27 27 27 27 26 26 27 26 27 27 28 30 30 31 32 32 31 31 31 32 32 33 35 34 32 31 32 32 32 31 31 31 32 32 33 34 34 35 35 34 34 34 34 34 36 37 37 37 37 35 34 35 35 35 37 39 40 40 42 44 41 39 35 33 42 49 46 50 54 51 49 46 44 43 42 43 42 42 40 36 34 33 32 29 26
28 28 28 27 27 27 27 27 27 27 26 27 26 27 29 30 31 33 35 34 31 31 33 33 35 37 36 33 33 33 33 33 32 32 33 33 34 35 37 38 38 37 35 33 33 34 36 40 41 39 39 37 36 34 34 35 34 36 38 40 41 42 43 42 39 37 35 42 50 47 51 57 53 50 47 42 43 44 43 40 38 35 31 30 31 30 26 20
28 28 27 27 26 27 27 27 26 26 27 27 26 27 28 29 30 33 37 39 35 32 34 34 35 38 35 31 33 33 34 35 33 33 32 33 34 36 38 40 41 40 36 33 34 36 40 44 42 37 34 34 33 32 32 33 32 34 36 39 42 41 42 44 40 37 36 40 49 48 52 59 54 52 49 44 43 38 32 29 29 31 31 31 29 22 15 8
29 29 28 27 26 26 26 26 25 25 25 25 25 25 26 28 29 31 35 41 41 36 34 35 36 38 34 31 32 32 35 36 34 33 32 33 35 36 38 41 42 41 39 37 37 39 41 41 36 29 28 30 30 30 29 30 32 35 35 37 42 40 41 45 41 37 35 39 46 45 53 61 54 46 36 25 23 20 20 25 29 32 33 30 20 7 1 3
29 29 29 28 27 27 25 24 24 24 24 25 24 24 26 28 29 31 35 40 45 41 35 36 38 37 32 29 29 31 35 35 35 35 32 34 36 36 40 41 41 43 42 41 40 42 43 39 35 32 32 32 32 32 31 31 35 38 38 38 41 39 38 41 41 38 36 37 38 40 49 51 33 18 6 2 13 24 27 30 31 33 29 17 3 4 5 4
27 27 27 26 26 25 23 23 22 24 25 25 24 24 26 27 28 31 34 39 45 41 33 29 29 28 23 21 22 26 31 33 34 35 33 35 36 37 40 40 41 44 42 40 40 43 43 37 34 34 33 31 32 34 30 30 36 39 38 34 34 34 34 35 34 34 35 29 26 27 29 25 15 8 10 17 29 34 29 29 34 29 12 3 8 7 4 2
25 25 25 24 24 23 23 22 22 24 25 24 24 24 25 26 28 30 32 37 40 34 22 12 11 11 10 11 13 17 23 25 26 28 30 33 35 37 39 40 41 42 41 39 38 41 40 34 30 29 28 27 28 29 25 25 33 38 33 26 26 28 30 30 27 27 26 20 22 23 15 20 31 27 25 29 30 29 27 28 26 10 9 10 9 8 4 1
26 27 27 26 25 24 23 22 22 24 23 22 23 24 25 26 27 28 28 25 23 18 8 4 2 4 6 9 9 10 12 14 14 16 20 23 28 33 35 39 40 39 40 36 33 35 33 27 23 22 21 22 22 23 21 19 27 34 29 24 25 27 28 28 25 24 26 29 31 26 14 22 38 33 24 25 23 21 19 14 7 12 14 8 9 9 6 3
26 28 28 28 28 27 25 22 22 23 23 22 22 22 24 25 26 26 19 10 7 6 3 2 6 7 9 10 11 12 13 13 11 12 14 15 20 24 28 33 36 37 38 36 36 36 33 29 27 25 24 25 24 24 22 20 24 29 27 26 25 26 27 27 27 26 27 30 23 13 6 10 30 39 30 22 15 11 10 12 14 17 13 10 8 8 8 5
27 27 27 28 27 25 22 20 20 21 21 21 20 21 21 21 22 21 11 4 5 7 7 9 10 10 11 11 12 15 16 16 16 15 16 15 17 20 22 24 26 29 31 33 37 36 32 31 30 29 28 27 24 21 20 21 23 25 25 27 26 26 28 26 27 26 22 22 13 6 5 6 26 40 20 6 6 9 12 14 16 17 11 9 6 8 9 4
29 29 28 28 27 23 21 19 17 18 18 17 17 17 18 18 18 14 7 7 8 11 12 12 11 11 14 15 15 16 16 17 18 17 18 18 18 19 19 19 20 23 24 27 31 31 29 29 29 28 24 21 18 17 18 20 22 23 24 28 28 27 29 25 26 23 14 14 14 15 15 10 16 17 3 2 1 11 15 12 7 9 7 4 5 4 5 7
29 29 29 29 28 25 21 17 14 15 15 15 15 16 17 18 17 9 6 8 11 12 11 7 5 4 8 12 13 14 15 16 17 17 17 17 18 19 20 19 19 21 23 26 27 26 25 25 25 24 20 17 16 17 20 22 22 23 24 26 25 20 18 15 14 11 5 8 13 15 16 16 17 7 5 5 14 15 4 10 9 8 11 4 4 8 13 17
27 27 27 27 25 22 19 16 15 16 16 16 16 17 19 19 16 16 14 12 10 7 4 1 3 5 7 10 11 12 13 13 13 14 16 16 17 19 19 19 17 17 18 20 22 24 26 27 25 24 23 21 18 18 21 21 21 22 24 24 16 8 7 5 3 2 5 12 14 11 8 18 31 28 18 12 9 13 23 17 6 10 12 13 16 19 21 22
26 26 25 24 23 21 21 20 19 19 18 18 18 19 20 15 11 14 15 11 7 7 9 11 16 22 25 25 22 19 18 17 16 15 16 17 18 19 17 17 17 16 17 21 24 26 27 28 26 24 23 18 15 16 17 17 16 17 22 21 13 4 1 3 3 2 7 14 17 15 13 16 28 32 29 24 17 16 14 7 8 16 22 22 23 23 24 26
26 26 26 26 26 24 24 24 23 23 21 21 20 19 20 19 15 14 15 16 18 21 24 26 29 31 31 30 27 25 24 24 23 22 21 21 22 23 21 21 20 19 19 22 23 20 17 21 22 19 18 15 14 15 16 18 19 21 25 23 19 17 11 6 4 4 7 7 7 10 10 9 14 14 13 11 11 16 21 23 24 23 17 11 15 20 22 26
28 29 29 29 28 28 27 26 27 26 24 24 22 19 24 28 24 24 25 25 25 27 28 29 30 30 31 32 32 31 28 25 25 27 27 27 27 28 29 29 30 28 22 18 17 16 15 22 22 15 15 19 20 21 22 22 21 24 25 23 25 29 27 19 15 17 13 6 6 11 14 25 31 30 32 33 33 33 28 20 12 6 1 3 10 18 19 22
33 33 33 33 33 32 30 30 29 28 28 27 22 25 35 36 30 29 29 28 26 26 28 30 32 32 31 30 29 26 22 21 21 23 25 26 27 30 31 31 31 32 29 25 24 19 17 25 27 20 21 26 26 27 28 27 23 21 21 25 30 32 31 25 19 20 15 8 13 17 21 37 44 42 41 32 23 18 11 7 6 4 2 6 11 15 17 20
36 37 36 36 36 33 32 33 31 29 31 29 26 32 40 40 36 36 35 35 34 33 32 30 30 29 24 24 25 20 17 18 19 18 21 22 21 23 27 28 28 30 29 27 28 24 21 30 37 34 32 32 32 32 32 32 31 28 26 29 29 25 26 22 10 6 7 6 12 18 25 33 31 24 14 9 7 10 10 9 6 1 5 7 11 14 17 20
37 40 39 37 36 35 33 33 31 30 30 31 34 40 42 42 41 40 39 39 38 36 34 31 31 29 27 29 30 26 20 19 18 18 22 23 21 21 26 27 26 28 26 23 24 25 23 27 35 39 34 30 32 32 30 30 30 31 32 31 25 16 15 16 10 2 4 5 4 12 23 27 28 29 23 20 22 13 4 5 3 1 5 7 11 16 19 22
39 41 41 40 38 36 35 33 31 28 27 32 39 42 44 46 44 41 40 40 38 35 34 34 32 30 30 32 31 28 26 24 21 21 22 21 21 22 22 22 22 24 25 23 23 26 25 22 27 37 36 28 28 30 28 26 27 30 32 33 30 22 13 12 10 4 3 5 4 6 11 16 31 41 34 27 23 11 7 18 22 21 20 18 19 21 22 23
40 40 39 39 37 35 33 31 29 28 30 36 41 42 43 44 42 42 40 37 36 33 32 34 32 31 33 35 34 33 32 30 29 29 26 25 26 26 24 24 27 28 29 29 29 31 31 27 28 35 37 30 29 31 29 25 23 25 27 28 28 26 20 17 17 19 15 6 3 3 5 16 36 41 29 20 19 20 27 35 38 38 36 33 32 30 30 30
36 36 36 35 34 31 28 27 28 30 33 36 39 40 40 39 39 41 40 38 37 35 34 34 34 34 35 36 37 36 33 32 34 34 32 32 32 30 27 26 27 28 29 30 31 31 31 30 30 32 35 35 36 36 32 25 22 22 24 26 28 28 27 18 13 23 27 16 10 9 6 19 38 41 35 34 34 36 38 36 37 37 35 36 38 39 41 42
31 31 30 28 28 26 24 25 27 28 30 33 35 35 34 34 36 36 36 37 36 34 34 34 34 35 35 36 38 38 35 37 38 37 36 36 34 33 31 29 30 32 32 32 32 33 31 26 26 29 34 38 38 36 33 30 30 30 30 31 33 33 33 25 13 16 23 20 22 20 11 19 36 40 37 37 35 34 33 32 34 38 40 43 45 45 46 45
28 27 26 25 24 23 22 24 25 26 29 31 32 32 31 32 33 33 34 34 32 31 32 32 33 33 34 35 35 34 35 36 37 37 37 36 37 38 36 35 37 36 34 34 34 33 31 26 24 25 28 32 33 32 33 32 31 32 32 32 33 31 33 33 29 24 21 19 21 17 7 8 18 27 30 29 29 32 35 37 37 38 40 42 42 44 45 45
25 24 23 23 22 22 23 26 27 27 29 29 29 30 30 31 32 33 33 32 31 31 31 32 32 31 32 32 32 33 34 31 30 31 29 28 30 32 31 32 34 35 35 34 31 27 24 22 19 14 10 14 19 22 23 21 20 22 25 26 28 30 31 34 35 28 18 19 24 16 7 8 13 21 30 34 37 41 43 44 42 39 38 38 39 41 42 45
23 22 21 21 21 21 24 27 28 28 28 28 29 30 29 31 32 32 32 32 32 32 32 34 34 33 34 34 35 36 35 32 29 28 28 29 30 31 32 32 32 33 33 31 30 27 23 21 21 15 8 8 12 15 14 12 12 14 17 17 19 22 25 26 30 27 16 19 27 21 17 26 31 33 38 41 44 46 47 47 46 44 42 41 41 42 43 45
23 23 22 21 21 22 25 26 27 28 28 28 28 28 28 30 30 28 28 29 28 28 29 30 30 30 31 32 34 36 36 37 36 35 37 39 37 36 36 34 31 27 26 27 28 29 27 26 27 27 23 21 23 24 23 22 21 20 19 21 23 25 26 25 26 26 22 22 27 28 31 37 38 38 41 42 42 43 45 45 45 44 45 46 47 48 48 49
24 24 23 21 19 21 24 24 25 28 28 29 31 31 30 31 30 29 30 30 30 29 29 29 30 30 31 33 34 34 34 35 33 31 32 32 31 31 30 31 32 32 32 34 34 33 31 30 32 32 30 30 32 34 34 35 33 28 25 27 31 33 33 31 29 30 28 24 22 26 31 34 34 35 38 41 41 44 46 48 49 51 52 52 52 52 52 52
25 25 24 23 22 22 24 25 25 26 27 29 32 33 32 32 32 32 32 32 32 31 31 31 31 30 29 29 27 26 26 25 22 21 22 24 26 28 30 32 34 36 37 38 37 34 31 32 35 34 32 33 38 40 41 40 36 29 26 28 32 34 36 37 38 37 34 29 28 33 39 43 45 46 47 50 51 52 52 53 53 53 53 53 52 51 51 51
26 27 25 25 27 27 27 27 27 27 27 28 30 32 32 32 33 32 31 31 32 32 31 32 33 32 31 30 28 28 29 28 29 30 31 32 34 36 39 39 37 38 37 35 33 29 27 29 28 25 26 29 32 35 36 35 34 34 34 34 35 39 43 44 45 45 45 45 47 49 50 51 51 50 50 50 50 50 50 50 50 49 48 48 48 47 47 48
28 28 27 27 28 28 28 28 28 29 29 29 31 32 32 32 33 33 32 32 34 34 33 34 35 36 36 36 35 35 36 35 37 38 38 38 37 36 36 35 33 34 33 31 28 22 21 23 22 23 26 28 31 34 34 33 36 38 39 41 46 49 51 51 51 51 51 50 48 46 44 44 44 43 44 44 44 44 44 44 44 44 43 44 45 46 47 48
28 29 29 29 28 28 29 29 28 29 30 31 32 32 32 33 34 35 35 35 35 36 36 35 35 33 31 30 29 29 29 29 30 31 31 31 29 27 26 25 25 27 27 26 25 22 23 26 29 31 32 33 38 39 37 39 42 40 42 49 54 54 50 48 48 45 43 41 40 38 38 38 38 37 37 36 37 37 37 38 39 39 41 44 46 47 47 47
28 29 29 29 29 29 30 30 29 30 32 32 32 31 32 33 34 35 35 33 33 35 35 34 34 33 31 30 29 28 27 27 27 27 28 29 29 30 31 30 29 31 32 33 33 34 34 35 36 34 30 34 43 41 37 34 28 30 43 52 50 48 44 40 38 35 33 33 35 36 36 34 32 29 29 29 31 32 34 36 38 40 42 44 44 44 44 43
Wind_Direction
279 282 284 286 288 289 290 292 292 293 295 296 297 298 298 298 297 297 295 294 294 293 292 291 290 289 288 287 286 285 285 285 285 285 286 286 287 290 291 291 292 293 294 293 293 293 294 294 293 293 292 292 292 292 293 294 296 294 293 292 292 295 298 301 300 298 298 299 296 293 293 292 294 295 294 294 297 301 303 312 314 308 313 315 312 309 302 298
279 280 283 284 285 286 287 287 288 289 289 290 291 292 293 293 294 294 294 294 294 294 293 293 293 293 292 291 291 290 289 289 289 289 288 287 287 288 289 289 289 289 290 289 289 290 290 290 290 289 290 289 289 289 290 292 292 291 290 288 290 295 295 294 295 296 296 294 291 291 291 290 296 298 294 293 296 300 304 316 315 305 309 313 312 308 303 302
277 278 280 281 283 284 284 285 285 286 286 287 287 288 288 289 290 290 290 290 290 291 291 292 292 293 293 292 293 293 292 292 293 293 292 291 290 289 288 288 289 288 288 287 287 288 288 288 288 287 287 287 286 286 286 288 289 287 286 286 292 295 291 290 294 295 291 290 290 291 290 291 296 295 292 293 295 297 304 317 311 300 303 309 309 304 302 305
275 276 278 279 280 281 282 283 283 284 284 285 285 285 286 286 287 287 288 288 288 288 289 289 290 290 291 291 291 291 291 292 293 294 294 294 295 294 291 290 290 291 290 289 288 289 289 288 288 288 287 286 285 284 284 285 286 284 283 287 294 294 290 291 293 290 288 288 289 291 292 294 295 290 290 293 292 294 302 310 305 299 301 305 304 298 297 303
274 275 276 277 278 279 279 280 281 282 282 283 284 284 285 285 285 286 287 287 287 288 288 289 288 289 289 289 289 289 290 292 293 291 289 290 292 292 289 288 288 289 290 289 289 288 288 288 288 288 287 285 285 284 284 284 283 283 285 288 292 293 290 291 291 287 285 285 287 291 292 293 292 290 293 292 289 294 301 303 300 298 299 301 299 293 293 298
274 274 274 275 276 276 277 278 279 280 281 282 283 283 284 284 285 286 286 287 287 287 288 288 289 289 288 287 287 286 286 288 292 288 285 286 286 285 285 285 285 285 285 285 285 285 285 285 285 285 285 284 283 284 283 282 282 283 286 290 293 293 290 290 290 285 284 284 286 289 289 290 292 293 293 288 287 293 300 301 299 295 294 294 292 289 290 292
273 273 274 274 275 275 276 277 278 279 280 281 281 282 282 283 284 285 286 287 287 287 287 288 288 288 288 287 286 284 281 286 292 286 285 285 284 285 285 286 286 285 285 284 284 284 284 284 284 284 282 282 283 283 282 282 283 283 287 292 294 291 289 292 290 286 285 285 286 286 286 288 292 293 289 284 286 293 300 301 297 293 290 287 285 286 287 288
271 272 273 274 274 275 275 275 276 277 278 279 280 280 281 282 283 283 285 286 287 287 287 288 287 287 288 286 286 282 280 289 292 283 282 284 285 287 288 288 288 287 286 285 285 285 286 285 285 283 282 283 283 283 285 285 284 285 289 293 291 289 291 292 289 288 288 288 288 287 287 290 292 292 286 283 288 296 301 297 292 290 287 284 284 284 284 284
269 270 271 272 273 273 274 275 275 276 277 278 278 278 279 280 280 282 283 284 285 285 286 287 286 287 286 285 286 281 282 294 289 280 280 283 286 288 288 288 287 286 285 284 284 284 284 284 283 282 282 282 283 285 286 285 286 289 291 290 289 290 292 290 288 289 290 291 291 289 291 292 292 290 284 284 292 299 301 294 291 289 285 283 282 282 282 280
269 270 270 271 272 272 273 274 275 276 276 276 277 277 278 278 279 280 282 283 283 283 284 284 285 285 284 285 282 279 287 295 284 280 281 282 286 287 287 286 284 285 283 282 282 282 281 279 279 280 280 280 282 284 285 284 287 289 288 287 289 290 290 289 288 290 291 292 292 291 292 291 289 286 284 290 299 302 300 294 291 288 284 283 281 281 280 278
269 270 271 272 272 273 274 274 275 276 276 277 277 278 278 279 280 280 281 282 282 282 282 282 283 282 282 281 278 281 292 289 281 280 280 282 285 284 284 282 282 281 280 281 280 279 278 277 279 279 278 279 280 282 283 284 285 286 284 285 287 287 288 288 289 292 294 294 295 294 293 290 286 283 287 298 302 301 297 293 291 289 286 284 282 281 279 278
270 271 271 272 273 274 274 275 276 276 277 277 278 279 279 279 280 280 280 280 280 280 281 281 281 280 280 278 277 285 289 284 282 281 281 284 283 280 279 278 278 277 277 277 277 277 277 277 277 276 275 276 278 280 282 283 283 283 283 284 286 286 286 287 290 295 297 297 298 296 292 288 285 284 292 301 301 298 295 293 291 288 287 285 282 281 280 279
270 271 272 273 273 274 275 275 276 276 277 277 278 279 279 279 279 279 279 279 279 279 280 280 279 280 279 278 281 285 283 282 283 283 284 284 279 276 275 275 275 275 275 275 276 276 276 276 275 274 273 274 277 279 281 282 281 281 282 283 285 286 286 290 296 299 300 298 298 296 289 286 286 288 295 300 299 297 295 294 292 288 286 285 283 282 280 279
270 272 273 273 274 274 275 276 276 276 277 277 279 279 280 280 280 280 281 281 281 281 281 281 281 280 278 279 283 282 281 282 283 285 284 280 276 274 273 273 273 273 274 275 276 276 275 275 273 272 273 275 279 280 281 280 278 280 281 281 282 283 287 296 302 303 301 297 297 295 286 287 290 289 293 297 296 296 295 294 290 287 286 286 286 284 283 282
270 271 272 272 273 274 275 275 276 277 277 278 279 280 281 282 282 283 283 283 283 283 283 283 283 282 281 282 283 281 283 286 285 284 282 280 278 274 271 270 271 272 274 275 276 276 275 273 271 272 274 276 279 280 279 277 276 279 279 278 281 283 290 300 300 298 298 294 293 291 286 290 292 290 291 294 293 294 295 292 289 288 288 288 288 289 289 287
270 270 271 272 273 274 274 275 276 277 278 279 280 280 281 281 282 283 283 284 284 284 284 283 283 282 281 283 284 284 286 287 285 284 282 283 280 276 273 270 270 272 273 274 275 275 273 271 271 272 273 273 274 277 277 274 274 278 278 279 284 287 293 298 294 292 294 293 292 290 289 290 291 291 292 291 292 293 291 289 289 289 290 292 293 294 293 292
270 270 271 272 273 273 274 275 276 278 279 280 281 282 282 282 283 283 283 283 282 282 281 280 281 280 280 284 286 285 286 285 283 283 284 283 280 278 276 273 271 271 271 272 273 273 272 270 271 271 271 271 271 271 269 269 274 282 284 285 289 292 293 293 293 293 292 290 292 293 291 289 291 292 291 289 291 290 287 287 288 289 292 295 295 295 294 294
269 270 271 271 273 274 275 276 277 278 280 281 282 283 283 284 283 283 282 281 280 280 279 278 279 279 279 283 285 283 282 281 281 282 282 282 280 278 275 273 271 270 269 269 270 270 269 270 269 266 265 265 265 262 261 270 285 290 291 290 291 292 289 289 292 294 292 289 290 290 289 289 291 293 291 290 289 287 285 285 288 291 294 295 294 295 295 296
270 271 272 273 274 275 276 278 279 280 281 283 285 285 285 285 285 284 282 281 279 278 277 277 277 275 276 279 281 281 280 280 280 280 280 280 278 275 274 272 270 268 267 267 268 268 268 267 262 259 262 267 270 272 274 284 292 291 289 287 287 287 287 288 290 294 295 289 285 285 287 289 291 292 290 287 287 285 284 285 289 292 294 295 296 296 296 298
270 271 273 274 275 277 278 279 280 281 282 283 286 287 287 287 287 284 282 280 280 279 278 278 278 276 277 281 282 282 281 280 279 278 278 276 275 275 273 271 269 267 266 267 268 268 268 263 258 261 269 276 281 284 285 287 287 284 284 283 283 284 284 287 291 296 297 290 286 287 288 288 289 289 287 286 286 284 285 289 291 292 295 296 298 300 303 304
271 272 273 274 276 277 278 279 280 282 283 284 285 286 287 288 289 288 285 281 279 281 280 280 280 279 281 284 283 281 280 277 275 275 274 275 275 274 273 272 270 269 269 269 268 269 266 259 261 270 279 284 285 283 281 280 279 279 280 280 280 280 284 290 294 296 297 291 289 293 292 288 288 287 286 285 284 285 289 290 291 293 296 298 302 307 309 308
272 273 274 275 276 276 277 279 280 282 283 284 285 286 288 289 290 291 290 286 281 280 281 283 282 281 284 285 282 281 277 274 274 273 273 273 272 270 271 271 271 272 272 269 267 266 262 260 268 280 285 284 282 279 277 277 278 277 276 277 277 281 289 292 294 298 300 293 292 297 294 288 288 289 290 289 288 289 288 287 291 296 299 305 311 313 309 309
270 272 273 274 275 276 277 279 280 281 282 283 285 287 288 290 291 292 293 292 288 283 283 286 285 284 286 283 279 277 273 273 272 269 267 266 264 264 265 267 269 271 270 268 268 266 262 265 276 283 282 280 279 278 278 278 277 276 275 275 277 285 291 290 295 302 299 294 295 298 294 290 293 297 298 298 294 291 289 293 298 301 307 314 316 316 6 73
268 270 271 272 272 274 276 277 279 280 280 281 284 286 288 290 293 293 294 295 293 291 291 289 287 287 286 281 275 270 268 268 266 263 261 258 258 259 260 263 266 267 268 269 270 269 268 272 278 278 276 277 277 277 276 277 278 278 276 276 281 289 291 291 298 302 297 294 295 299 298 295 300 315 336 2 300 300 302 304 306 310 315 320 338 103 89 61
270 271 272 272 271 271 273 274 277 279 279 282 285 288 290 292 295 297 299 299 298 300 303 296 290 289 287 278 268 263 261 261 261 261 260 257 256 257 258 260 262 265 268 270 272 273 272 275 277 277 276 276 275 274 274 276 279 278 277 281 288 294 296 296 301 302 298 296 295 305 309 300 295 301 293 297 303 306 310 312 316 322 325 144 116 88 72 50
270 271 272 272 270 270 272 273 276 277 279 283 286 289 291 294 298 301 305 304 302 307 316 312 294 289 296 286 265 260 261 261 263 261 260 258 256 256 257 259 261 264 267 270 271 272 274 277 277 276 277 274 270 272 277 278 276 276 282 292 296 296 296 297 301 298 293 292 292 297 299 291 292 295 297 302 308 312 317 324 327 347 128 138 101 86 106 104
269 269 269 268 267 268 270 272 275 276 280 283 286 289 292 296 300 304 310 309 305 315 343 49 18 296 313 310 290 279 267 264 271 266 262 260 257 256 257 259 261 263 266 267 266 268 274 279 277 276 276 272 268 274 284 284 275 277 289 298 294 293 294 294 296 290 287 290 292 290 277 278 288 295 303 307 314 325 336 358 43 126 131 115 102 119 144 130
266 266 264 263 263 264 265 267 271 274 278 282 285 289 292 295 299 303 312 315 307 332 9 352 320 300 301 301 287 280 272 270 275 272 272 269 262 259 258 259 261 262 264 264 262 266 272 274 275 275 274 273 277 283 288 285 278 281 291 292 288 290 289 289 289 287 290 295 293 290 266 256 280 289 298 306 326 10 42 83 121 136 117 82 99 145 158 143
265 265 264 263 262 262 261 262 267 272 276 281 285 288 290 295 297 298 298 265 277 313 308 295 297 293 293 289 276 272 272 273 271 271 273 268 263 263 262 262 263 264 265 264 265 268 271 274 275 275 275 279 285 289 288 283 279 284 289 288 286 286 283 283 284 284 289 288 273 256 236 235 285 290 296 327 11 65 88 109 133 145 122 62 70 161 173 184
265 264 264 264 263 262 261 263 268 271 275 281 284 288 292 294 295 292 261 243 281 303 301 297 294 283 276 271 268 267 269 273 275 276 276 272 269 269 268 269 271 272 271 269 272 275 275 275 275 276 280 285 286 286 284 280 280 283 285 284 284 282 280 279 277 278 288 278 259 259 260 247 278 294 356 52 101 103 99 96 121 167 163 56 48 166 218 266
266 265 265 266 267 266 266 265 264 268 274 279 283 290 294 293 286 262 220 265 297 298 296 309 328 306 279 269 266 266 269 277 283 285 284 281 276 272 273 275 276 279 279 276 278 280 278 277 278 281 283 280 279 277 276 277 277 277 275 276 279 282 281 276 267 266 266 265 270 276 267 241 238 251 54 109 131 119 58 329 301 224 194 212 312 286 277 278
265 265 268 270 271 270 271 267 263 267 271 276 282 286 290 290 271 240 241 277 302 295 283 35 33 348 321 298 288 285 284 287 290 292 291 284 278 276 276 278 279 281 283 282 284 285 282 280 281 282 278 276 274 269 270 274 272 271 269 266 268 289 300 276 233 217 227 251 270 273 242 235 241 247 254 236 213 272 292 299 259 206 223 253 275 283 276 270
262 264 266 269 270 270 271 271 268 266 267 271 275 279 282 279 253 238 249 260 258 266 275 281 291 295 294 291 288 284 284 283 282 282 283 282 283 285 283 283 283 281 282 286 290 291 289 284 280 278 279 277 267 263 271 279 278 277 275 266 250 232 308 273 243 263 258 257 264 255 235 247 257 262 267 264 264 275 277 274 263 273 281 277 274 275 267 262
261 262 263 265 267 267 268 269 268 266 265 266 270 276 271 257 247 255 263 260 263 276 282 284 290 292 290 290 288 284 283 282 279 275 275 275 277 281 282 281 281 283 286 287 287 288 287 286 283 280 282 281 278 284 291 295 293 288 284 273 251 239 242 251 238 254 274 275 259 226 212 249 271 277 283 273 268 278 285 290 289 285 285 278 273 269 259 256
260 260 262 263 264 265 265 266 266 266 265 264 267 268 258 251 255 262 266 270 274 280 283 286 291 290 288 289 289 289 286 280 278 278 277 274 272 275 276 274 273 276 276 273 279 287 283 283 284 281 277 280 286 292 292 292 290 284 275 258 247 251 253 251 250 256 269 298 257 220 233 263 271 273 275 276 281 285 288 291 292 292 256 190 250 258 248 244
260 259 259 260 261 261 261 261 262 263 264 263 260 254 251 252 258 263 268 274 275 278 283 286 287 286 288 290 291 292 287 278 278 278 275 274 275 275 275 276 274 273 273 272 276 278 272 275 279 277 280 283 283 284 284 282 276 270 260 251 257 264 257 250 254 260 260 273 265 250 257 269 274 281 280 274 277 278 268 280 308 320 264 206 228 243 242 240
263 263 262 261 261 261 261 261 261 260 262 261 255 254 255 258 262 265 270 274 275 278 280 280 281 280 281 285 286 287 285 281 279 274 271 274 276 275 276 279 278 278 281 281 274 265 262 273 279 281 283 284 282 279 276 272 265 258 255 260 267 265 252 244 246 260 243 250 264 257 262 270 275 284 274 230 260 284 275 292 317 206 201 223 240 246 249 251
261 264 266 265 265 266 268 269 268 266 266 265 262 263 265 267 268 271 274 275 277 278 274 270 272 274 274 276 279 280 280 277 273 270 272 272 270 274 279 281 282 283 283 277 268 265 266 273 280 284 284 283 281 275 263 257 258 254 254 258 258 252 244 234 225 230 240 242 256 251 259 266 264 264 264 269 281 289 278 287 314 230 232 239 244 245 246 250
261 265 267 267 268 269 270 272 272 269 262 260 263 267 270 273 276 278 278 276 274 271 268 267 267 268 270 271 273 274 274 275 274 272 271 267 265 273 278 277 277 279 279 272 267 268 268 268 275 282 282 278 276 269 255 252 257 253 248 248 247 247 247 232 228 238 243 247 255 248 256 265 268 270 276 280 274 261 284 298 299 297 290 279 272 265 258 256
264 266 267 267 268 269 269 269 266 259 253 257 265 270 272 275 279 279 276 272 268 264 263 265 265 265 267 269 270 272 273 274 273 271 268 264 265 269 271 270 271 273 274 273 270 270 269 263 262 272 275 269 264 266 266 266 263 249 240 240 242 248 253 254 256 256 252 250 256 255 245 257 269 276 276 276 277 279 291 297 297 297 296 293 291 287 282 280
264 264 264 266 266 267 266 260 256 254 254 260 266 268 269 271 274 275 273 271 268 266 265 266 266 266 268 270 271 273 274 274 274 273 269 267 267 267 268 268 267 268 271 272 269 267 263 255 250 256 260 259 263 270 272 268 258 248 246 250 253 258 261 261 261 253 247 237 236 253 249 252 266 276 276 277 286 289 289 291 292 295 297 297 297 295 293 291
263 263 264 265 264 264 261 256 256 256 254 258 264 265 265 268 271 272 273 272 270 269 269 268 268 268 268 269 272 274 275 275 274 273 270 270 270 269 269 268 267 269 272 271 266 261 258 254 250 251 254 261 268 271 269 266 264 262 262 262 263 263 258 251 249 254 249 241 243 251 253 259 269 276 276 279 285 287 288 289 290 293 294 295 296 294 293 291
263 264 264 263 261 261 257 253 254 251 251 259 266 266 265 266 268 270 270 269 269 269 270 268 268 269 268 270 273 275 275 275 275 273 273 273 273 272 271 270 269 270 268 267 266 263 260 258 257 257 262 268 271 271 269 268 268 266 266 267 265 262 257 252 251 256 256 249 246 248 245 253 265 268 271 280 286 287 290 292 291 292 291 291 292 291 291 291
262 262 261 259 258 254 250 252 255 253 255 261 263 263 264 263 264 267 267 267 268 269 269 269 269 268 268 270 271 273 273 273 275 276 274 272 270 271 273 274 274 274 270 266 265 263 259 254 253 257 271 276 275 276 275 270 264 264 268 271 268 264 262 257 254 255 258 254 251 251 253 250 256 265 273 283 288 289 291 292 291 291 290 290 291 291 292 293
261 260 259 259 256 250 247 253 258 259 261 263 260 260 262 261 262 265 266 267 268 268 268 270 269 269 270 271 271 271 271 270 272 275 274 273 273 275 278 282 283 280 274 269 266 266 264 258 257 262 267 265 267 271 273 271 266 265 267 267 264 261 260 260 261 260 258 257 253 252 264 271 273 276 279 282 285 285 285 285 286 289 292 294 295 295 295 295
260 260 259 259 257 254 252 252 254 256 258 258 258 260 262 264 266 268 268 269 269 268 267 267 268 270 271 270 270 271 270 270 274 277 277 277 279 280 280 281 279 272 268 271 274 276 275 271 269 268 261 258 265 269 271 275 280 280 276 269 266 264 263 268 271 263 263 272 267 263 270 276 276 276 275 274 275 278 280 282 284 288 292 294 295 296 297 297
259 259 258 257 254 254 255 250 246 249 251 249 250 254 258 259 260 262 264 265 266 266 266 266 267 268 268 269 272 274 275 276 277 278 278 277 277 277 276 274 270 267 270 277 281 281 279 276 274 272 268 268 273 275 275 279 282 285 284 277 274 271 268 269 270 268 274 285 280 273 276 278 278 277 278 281 283 285 287 289 289 290 291 293 294 295 296 296
261 259 257 255 253 253 254 253 251 252 253 251 251 257 262 260 258 259 261 262 263 263 265 267 268 268 269 269 271 271 274 274 267 264 271 274 272 274 277 277 276 275 276 278 281 281 278 276 276 275 273 272 273 275 276 276 277 278 280 282 279 274 271 270 271 273 279 281 280 282 283 284 286 288 289 291 291 291 291 291 291 291 292 292 293 293 294 294
262 261 259 257 256 256 257 258 259 258 258 256 255 260 264 265 265 265 263 263 264 264 264 264 265 266 266 264 264 263 264 267 266 265 270 274 275 278 282 282 281 281 280 280 280 280 277 277 279 276 272 270 271 274 274 274 278 280 281 284 283 278 275 276 277 279 280 278 279 283 283 283 286 287 286 286 285 286 287 287 288 289 289 289 290 291 292 294
264 264 263 261 260 260 259 259 258 259 259 257 256 260 263 264 267 268 265 263 265 266 267 266 265 267 268 268 268 267 267 270 272 273 275 277 277 279 280 280 279 279 279 279 278 273 270 272 271 275 280 276 271 271 271 277 287 289 286 285 283 280 279 279 281 282 280 278 279 280 279 278 279 279 279 280 281 282 283 283 284 283 283 284 286 288 290 292
265 264 264 263 262 261 261 260 258 259 260 258 258 261 263 263 265 267 267 266 266 267 268 268 267 268 269 270 271 271 271 272 272 271 272 272 271 271 271 273 276 277 276 275 273 269 269 273 277 284 290 285 280 279 280 285 290 289 286 284 282 282 282 281 281 281 278 276 277 275 272 272 273 274 274 276 277 278 278 278 279 280 282 284 285 286 288 288
263 263 262 262 262 261 261 262 261 261 262 263 263 263 263 263 265 266 267 268 269 269 269 268 268 267 265 263 262 263 264 262 260 259 261 264 267 269 271 273 275 277 277 276 276 275 276 280 286 289 287 285 286 287 287 291 292 284 281 283 285 285 285 283 280 278 275 273 272 271 272 273 273 272 273 273 273 274 274 275 277 279 281 282 283 284 285 286
Height
3186 3186 3186 3186 3186 3186 3186 3186 3187 3187 3187 3187 3187 3187 3187 3187 3187 3187 3187 3186 3186 3186 3186 3186 3186 3186 3185 3185 3185 3185 3185 3185 3185 3185 3184 3184 3184 3184 3184 3183 3183 3183 3183 3183 3183 3183 3183 3182 3182 3182 3182 3182 3181 3181 3181 3181 3180 3179 3178 3177 3178 3178 3177 3177 3177 3175 3174 3174 3174 3173 3173 3171 3171 3172 3170 3169 3169 3170 3170 3171 3170 3168 3168 3168 3167 3166 3165 3164
3185 3185 3185 3185 3185 3185 3185 3185 3185 3185 3186 3186 3186 3186 3186 3185 3186 3186 3185 3185 3185 3185 3185 3185 3185 3185 3184 3184 3184 3184 3184 3184 3184 3183 3183 3183 3182 3182 3182 3182 3182 3181 3181 3181 3181 3181 3181 3180 3180 3180 3180 3180 3179 3179 3179 3179 3178 3177 3176 3175 3176 3176 3175 3175 3175 3174 3173 3172 3171 3171 3171 3169 3169 3169 3168 3167 3167 3168 3168 3169 3168 3167 3167 3166 3165 3164 3163 3163
3184 3184 3184 3184 3184 3184 3184 3184 3184 3184 3184 3184 3184 3184 3184 3184 3184 3184 3184 3184 3184 3184 3184 3184 3184 3183 3183 3183 3182 3182 3182 3182 3182 3182 3181 3181 3181 3181 3180 3180 3180 3179 3179 3179 3179 3179 3179 3178 3178 3178 3178 3177 3177 3177 3177 3177 3176 3175 3174 3173 3174 3175 3173 3173 3174 3173 3171 3170 3169 3169 3169 3168 3168 3167 3165 3164 3164 3166 3167 3167 3166 3164 3165 3165 3163 3161 3161 3161
3182 3182 3182 3182 3182 3182 3182 3182 3182 3182 3183 3183 3183 3183 3183 3183 3183 3183 3183 3182 3182 3182 3182 3182 3182 3182 3182 3181 3181 3181 3180 3180 3181 3181 3180 3179 3179 3179 3179 3178 3178 3177 3177 3177 3177 3177 3177 3176 3176 3176 3176 3175 3175 3175 3175 3175 3174 3172 3171 3171 3172 3172 3171 3171 3172 3171 3169 3168 3167 3167 3166 3166 3166 3164 3163 3162 3161 3163 3165 3166 3164 3162 3162 3162 3161 3159 3159 3158
3180 3180 3181 3181 3181 3181 3181 3181 3180 3181 3181 3181 3181 3181 3181 3181 3181 3181 3181 3181 3180 3180 3180 3180 3180 3180 3180 3180 3179 3179 3179 3179 3179 3179 3178 3178 3178 3177 3177 3177 3176 3176 3176 3175 3175 3175 3175 3174 3174 3174 3173 3173 3173 3172 3172 3173 3172 3169 3168 3169 3170 3170 3168 3168 3169 3168 3167 3166 3165 3165 3164 3163 3162 3161 3161 3159 3158 3160 3163 3163 3162 3161 3159 3159 3158 3157 3157 3156
3178 3178 3179 3179 3179 3179 3179 3179 3178 3178 3178 3179 3179 3179 3179 3179 3179 3179 3179 3179 3178 3178 3178 3178 3178 3178 3178 3178 3177 3177 3177 3177 3178 3178 3177 3176 3176 3176 3175 3175 3175 3174 3174 3174 3173 3173 3173 3172 3172 3172 3171 3171 3170 3170 3170 3170 3169 3167 3166 3167 3168 3167 3165 3165 3166 3165 3164 3164 3163 3162 3161 3161 3159 3159 3158 3155 3154 3158 3160 3161 3160 3158 3157 3156 3156 3155 3155 3154
3176 3176 3176 3177 3177 3177 3177 3176 3176 3176 3176 3176 3176 3176 3176 3176 3177 3177 3177 3176 3176 3176 3176 3176 3176 3176 3175 3175 3175 3175 3174 3176 3177 3176 3174 3174 3174 3174 3173 3173 3173 3172 3172 3171 3171 3171 3170 3170 3170 3170 3169 3168 3168 3168 3168 3167 3167 3165 3163 3164 3165 3164 3163 3163 3162 3161 3161 3161 3160 3160 3159 3159 3157 3155 3153 3150 3152 3156 3158 3158 3156 3155 3155 3153 3153 3153 3152 3152
3174 3174 3174 3174 3174 3175 3174 3174 3174 3174 3174 3174 3174 3174 3174 3174 3174 3174 3174 3174 3174 3174 3174 3174 3173 3173 3173 3172 3172 3171 3171 3174 3175 3174 3172 3171 3171 3172 3171 3171 3171 3170 3170 3169 3169 3168 3168 3168 3168 3167 3166 3166 3165 3165 3165 3164 3163 3162 3161 3162 3161 3161 3160 3160 3159 3158 3158 3158 3157 3156 3156 3157 3155 3152 3147 3146 3150 3153 3155 3154 3153 3152 3151 3150 3150 3150 3149 3148
3172 3172 3172 3172 3172 3172 3172 3172 3172 3172 3172 3172 3171 3172 3172 3172 3172 3172 3172 3172 3172 3171 3171 3171 3171 3171 3170 3170 3170 3167 3169 3173 3172 3171 3170 3169 3170 3170 3169 3169 3168 3168 3167 3167 3166 3166 3166 3165 3165 3165 3164 3163 3163 3162 3163 3161 3160 3159 3159 3158 3158 3158 3158 3157 3155 3155 3155 3154 3154 3152 3153 3154 3153 3148 3142 3144 3148 3150 3151 3150 3149 3148 3148 3147 3147 3146 3146 3145
3169 3169 3169 3170 3170 3170 3170 3170 3170 3170 3169 3169 3169 3169 3169 3169 3170 3170 3170 3170 3170 3169 3169 3168 3168 3168 3168 3168 3167 3164 3167 3170 3169 3169 3168 3168 3168 3167 3167 3166 3165 3165 3164 3164 3164 3163 3163 3162 3162 3162 3161 3160 3160 3160 3159 3158 3156 3156 3155 3154 3155 3154 3154 3153 3152 3153 3152 3151 3150 3148 3149 3150 3150 3144 3138 3143 3146 3146 3147 3146 3145 3145 3144 3144 3143 3143 3142 3141
3167 3167 3167 3167 3167 3167 3167 3167 3167 3167 3167 3166 3166 3166 3166 3167 3167 3167 3167 3167 3167 3166 3166 3166 3166 3166 3165 3165 3163 3162 3166 3166 3165 3166 3165 3166 3166 3165 3164 3163 3163 3162 3161 3161 3161 3160 3160 3159 3159 3159 3158 3157 3157 3157 3156 3155 3154 3153 3151 3150 3152 3151 3150 3150 3149 3150 3149 3147 3146 3144 3143 3145 3145 3141 3138 3142 3143 3141 3141 3141 3141 3141 3140 3140 3139 3139 3139 3138
3164 3164 3164 3164 3164 3164 3164 3164 3164 3164 3164 3164 3163 3164 3164 3164 3164 3164 3164 3164 3164 3163 3163 3163 3163 3163 3162 3162 3161 3162 3163 3162 3162 3163 3163 3163 3163 3162 3161 3160 3160 3159 3158 3158 3157 3157 3157 3156 3156 3156 3155 3154 3155 3155 3153 3153 3151 3149 3147 3146 3147 3147 3146 3146 3147 3147 3146 3143 3142 3140 3137 3138 3140 3138 3138 3140 3139 3137 3136 3136 3137 3136 3136 3136 3135 3135 3135 3135
3161 3161 3162 3162 3161 3161 3161 3162 3161 3161 3161 3161 3161 3161 3161 3161 3161 3160 3160 3160 3160 3160 3160 3160 3159 3159 3158 3158 3160 3160 3159 3159 3159 3159 3160 3160 3160 3159 3158 3157 3157 3156 3155 3155 3154 3154 3153 3153 3152 3152 3152 3151 3152 3152 3150 3149 3147 3146 3144 3142 3143 3143 3142 3144 3145 3144 3143 3140 3138 3136 3131 3130 3134 3135 3136 3137 3134 3133 3132 3132 3132 3131 3131 3130 3131 3131 3130 3131
3158 3159 3159 3159 3159 3159 3159 3159 3158 3158 3158 3158 3158 3158 3158 3158 3157 3157 3157 3157 3157 3157 3156 3156 3156 3156 3154 3155 3157 3157 3156 3156 3156 3156 3156 3156 3156 3156 3155 3154 3153 3152 3152 3151 3151 3151 3150 3149 3148 3148 3149 3149 3150 3150 3148 3146 3144 3144 3142 3139 3140 3139 3138 3143 3143 3140 3139 3135 3133 3132 3124 3122 3129 3132 3134 3134 3130 3128 3127 3127 3127 3126 3126 3125 3125 3126 3125 3127
3155 3156 3156 3156 3156 3156 3156 3156 3155 3155 3155 3155 3155 3155 3155 3154 3154 3154 3154 3153 3153 3153 3153 3152 3152 3152 3150 3152 3154 3153 3153 3153 3153 3152 3152 3152 3152 3152 3152 3151 3150 3149 3149 3148 3148 3148 3147 3146 3145 3145 3146 3147 3148 3147 3145 3142 3141 3143 3139 3135 3137 3135 3134 3140 3142 3138 3135 3131 3129 3127 3119 3116 3123 3127 3130 3130 3127 3125 3122 3122 3122 3121 3121 3120 3120 3121 3121 3121
3152 3152 3152 3152 3153 3153 3153 3152 3152 3152 3152 3152 3152 3151 3151 3151 3151 3151 3150 3150 3150 3149 3149 3149 3149 3148 3146 3148 3151 3150 3151 3150 3149 3149 3148 3149 3149 3148 3148 3148 3147 3147 3146 3145 3145 3144 3143 3142 3142 3142 3143 3145 3146 3144 3141 3138 3138 3140 3137 3132 3134 3133 3131 3134 3138 3138 3134 3127 3123 3122 3115 3111 3116 3122 3125 3126 3124 3121 3117 3116 3117 3116 3116 3116 3116 3116 3116 3116
3148 3149 3149 3149 3149 3149 3149 3149 3149 3149 3148 3148 3149 3148 3148 3148 3147 3147 3147 3147 3146 3146 3146 3145 3145 3144 3143 3144 3147 3148 3147 3146 3146 3146 3146 3146 3145 3145 3145 3144 3144 3143 3142 3142 3141 3140 3139 3139 3139 3139 3140 3141 3142 3142 3138 3135 3135 3136 3135 3130 3129 3131 3130 3129 3132 3136 3133 3124 3118 3116 3109 3106 3111 3116 3119 3121 3121 3118 3114 3112 3112 3112 3112 3112 3112 3111 3110 3110
3145 3145 3145 3146 3146 3145 3146 3146 3146 3146 3145 3145 3145 3145 3144 3144 3144 3144 3144 3143 3143 3143 3142 3142 3142 3140 3139 3142 3143 3144 3144 3143 3143 3143 3143 3143 3142 3142 3141 3140 3140 3139 3139 3138 3138 3137 3136 3135 3135 3135 3137 3137 3138 3138 3134 3133 3133 3133 3133 3130 3127 3127 3127 3126 3127 3131 3130 3122 3116 3111 3103 3100 3106 3110 3112 3115 3116 3113 3110 3109 3107 3108 3108 3108 3108 3107 3106 3106
3142 3142 3142 3142 3142 3142 3142 3142 3142 3143 3143 3142 3142 3142 3141 3140 3140 3140 3139 3139 3139 3139 3138 3138 3138 3137 3136 3139 3140 3140 3141 3141 3140 3141 3141 3140 3139 3138 3137 3136 3136 3135 3135 3134 3133 3133 3133 3132 3130 3131 3132 3132 3134 3134 3132 3131 3131 3129 3129 3127 3125 3123 3122 3123 3123 3125 3126 3117 3111 3110 3101 3097 3101 3104 3106 3109 3111 3109 3106 3105 3104 3104 3104 3104 3104 3103 3102 3102
3138 3139 3139 3139 3139 3139 3139 3139 3139 3139 3140 3139 3139 3138 3137 3137 3136 3135 3135 3135 3136 3136 3135 3135 3134 3133 3133 3136 3137 3136 3136 3137 3137 3137 3137 3136 3135 3134 3133 3132 3131 3130 3130 3131 3130 3130 3130 3126 3124 3126 3128 3130 3132 3132 3130 3129 3129 3126 3125 3123 3122 3120 3117 3118 3120 3121 3123 3111 3102 3106 3099 3092 3096 3098 3101 3104 3104 3104 3102 3102 3101 3100 3101 3100 3099 3098 3098 3098
3135 3136 3136 3136 3136 3136 3136 3136 3136 3136 3136 3136 3136 3135 3134 3133 3132 3130 3129 3130 3133 3132 3130 3131 3130 3128 3130 3133 3133 3132 3132 3131 3132 3133 3133 3133 3132 3130 3129 3127 3126 3125 3127 3128 3127 3126 3124 3119 3119 3124 3127 3128 3129 3129 3127 3125 3125 3123 3122 3120 3117 3117 3113 3113 3117 3117 3119 3108 3096 3100 3094 3085 3089 3091 3094 3099 3098 3098 3099 3098 3097 3096 3097 3097 3096 3095 3094 3094
3132 3132 3133 3133 3133 3133 3133 3133 3133 3134 3133 3133 3133 3132 3131 3130 3129 3127 3123 3121 3126 3129 3126 3127 3126 3123 3126 3129 3128 3128 3126 3125 3128 3129 3130 3130 3128 3127 3125 3122 3121 3121 3123 3124 3123 3122 3117 3113 3118 3124 3125 3125 3124 3124 3123 3122 3122 3120 3119 3117 3113 3114 3111 3108 3112 3114 3114 3105 3094 3095 3086 3075 3082 3085 3086 3091 3092 3093 3095 3094 3094 3093 3093 3093 3092 3091 3090 3091
3129 3129 3130 3130 3130 3130 3130 3130 3131 3131 3130 3130 3130 3129 3128 3127 3126 3124 3120 3115 3115 3122 3123 3122 3120 3118 3122 3124 3122 3123 3120 3120 3122 3123 3125 3125 3123 3123 3120 3118 3118 3117 3118 3119 3119 3117 3112 3111 3119 3123 3123 3121 3120 3120 3121 3120 3119 3116 3116 3114 3110 3112 3112 3105 3107 3110 3109 3103 3094 3092 3079 3067 3075 3078 3078 3083 3086 3089 3091 3091 3092 3091 3090 3089 3088 3088 3088 3088
3126 3126 3126 3127 3127 3127 3128 3128 3128 3127 3127 3127 3127 3127 3126 3124 3123 3120 3118 3112 3107 3112 3118 3117 3114 3113 3115 3117 3117 3117 3114 3114 3116 3117 3120 3119 3118 3119 3116 3116 3115 3113 3113 3115 3115 3111 3108 3112 3117 3119 3118 3118 3117 3116 3118 3117 3114 3112 3112 3112 3109 3111 3111 3105 3105 3105 3102 3100 3096 3091 3075 3062 3070 3074 3073 3079 3082 3085 3087 3086 3088 3087 3086 3086 3085 3087 3087 3086
3123 3123 3123 3124 3124 3124 3125 3125 3125 3125 3124 3124 3124 3124 3123 3122 3120 3118 3115 3110 3102 3104 3110 3111 3109 3108 3109 3110 3111 3110 3109 3109 3111 3112 3114 3114 3115 3115 3113 3113 3111 3109 3110 3112 3111 3106 3104 3110 3113 3113 3113 3114 3113 3112 3115 3115 3110 3107 3108 3110 3109 3108 3108 3105 3105 3101 3096 3096 3095 3094 3081 3062 3063 3072 3073 3076 3079 3080 3081 3081 3082 3082 3082 3083 3084 3085 3086 3085
3120 3120 3120 3121 3121 3121 3122 3123 3123 3122 3121 3122 3122 3121 3121 3119 3118 3117 3114 3108 3101 3101 3104 3104 3105 3105 3106 3107 3106 3107 3106 3106 3108 3109 3109 3110 3111 3111 3109 3109 3108 3107 3108 3109 3107 3101 3101 3107 3109 3109 3109 3109 3109 3108 3111 3112 3107 3103 3105 3108 3108 3106 3105 3103 3103 3101 3095 3092 3092 3096 3093 3071 3057 3065 3070 3071 3074 3075 3076 3076 3077 3078 3079 3081 3083 3083 3083 3083
3117 3117 3117 3117 3118 3118 3119 3120 3120 3119 3119 3120 3119 3119 3118 3117 3117 3116 3114 3109 3101 3100 3101 3101 3103 3103 3104 3105 3105 3105 3105 3105 3106 3106 3106 3107 3107 3107 3106 3105 3106 3105 3106 3106 3103 3098 3099 3104 3105 3105 3106 3105 3105 3106 3108 3109 3106 3101 3102 3106 3105 3103 3102 3100 3100 3099 3094 3091 3088 3090 3096 3083 3060 3058 3065 3067 3070 3072 3071 3072 3073 3076 3078 3079 3081 3080 3081 3082
3114 3114 3113 3114 3114 3115 3116 3118 3117 3116 3116 3116 3116 3116 3115 3115 3115 3115 3116 3113 3102 3098 3100 3100 3101 3102 3103 3104 3104 3104 3104 3104 3104 3104 3104 3105 3104 3104 3103 3102 3103 3102 3103 3103 3099 3097 3099 3101 3101 3102 3103 3101 3102 3104 3105 3106 3104 3100 3101 3102 3101 3101 3099 3098 3097 3096 3093 3090 3085 3083 3091 3089 3065 3055 3063 3066 3067 3070 3068 3069 3072 3074 3077 3078 3079 3079 3079 3080
3111 3110 3110 3111 3111 3112 3113 3114 3114 3113 3114 3114 3114 3114 3113 3113 3113 3113 3117 3113 3100 3097 3100 3100 3100 3102 3101 3102 3102 3102 3102 3102 3103 3102 3103 3103 3102 3102 3101 3101 3101 3100 3100 3099 3095 3095 3098 3098 3098 3099 3099 3099 3099 3101 3101 3102 3101 3099 3100 3098 3098 3098 3096 3096 3094 3093 3094 3088 3081 3081 3087 3088 3067 3053 3061 3065 3065 3068 3067 3068 3072 3073 3075 3076 3077 3078 3078 3078
3107 3107 3107 3107 3108 3109 3110 3111 3112 3111 3111 3112 3112 3111 3111 3111 3110 3112 3114 3106 3098 3098 3100 3098 3099 3100 3100 3100 3100 3100 3101 3100 3100 3101 3101 3101 3101 3101 3101 3100 3100 3098 3097 3096 3093 3094 3095 3095 3095 3095 3096 3097 3097 3098 3098 3098 3098 3098 3098 3095 3095 3095 3093 3094 3092 3092 3094 3083 3076 3079 3083 3086 3071 3053 3057 3062 3063 3066 3066 3068 3072 3073 3074 3075 3075 3077 3077 3076
3104 3104 3104 3104 3105 3106 3107 3108 3109 3109 3109 3110 3110 3110 3109 3108 3108 3109 3106 3099 3098 3099 3098 3098 3098 3098 3098 3099 3099 3099 3099 3098 3099 3099 3099 3099 3100 3100 3099 3099 3098 3096 3095 3093 3092 3092 3092 3091 3091 3092 3094 3094 3095 3095 3094 3094 3095 3095 3095 3094 3094 3092 3090 3091 3090 3092 3092 3080 3074 3077 3080 3081 3068 3053 3057 3060 3060 3063 3063 3067 3071 3072 3073 3073 3074 3075 3075 3073
3101 3101 3101 3101 3102 3103 3104 3106 3106 3106 3106 3107 3108 3107 3107 3106 3103 3100 3098 3099 3100 3098 3097 3098 3097 3097 3098 3098 3099 3099 3098 3097 3097 3097 3097 3097 3097 3097 3098 3098 3097 3096 3093 3092 3091 3090 3088 3088 3089 3089 3090 3091 3091 3091 3090 3091 3092 3092 3092 3093 3094 3093 3091 3089 3088 3090 3086 3077 3074 3076 3078 3073 3057 3051 3059 3060 3059 3061 3062 3064 3067 3069 3071 3072 3073 3072 3072 3070
3097 3098 3098 3098 3098 3100 3101 3103 3104 3104 3103 3104 3105 3105 3105 3104 3096 3091 3094 3099 3099 3096 3096 3097 3096 3096 3096 3096 3097 3098 3097 3096 3096 3096 3095 3094 3094 3094 3095 3095 3096 3096 3093 3092 3091 3088 3085 3084 3085 3086 3086 3087 3088 3088 3088 3087 3088 3089 3089 3091 3093 3094 3092 3089 3087 3086 3079 3073 3072 3075 3077 3066 3050 3050 3057 3058 3059 3060 3060 3062 3064 3066 3068 3068 3069 3069 3066 3064
3094 3094 3095 3095 3096 3097 3098 3099 3100 3100 3101 3101 3101 3102 3102 3097 3090 3089 3092 3095 3095 3095 3095 3095 3094 3094 3093 3093 3094 3095 3096 3094 3094 3094 3093 3093 3093 3092 3093 3093 3093 3094 3093 3092 3090 3088 3085 3082 3082 3084 3084 3084 3085 3085 3086 3085 3085 3085 3086 3087 3087 3087 3087 3085 3083 3079 3073 3072 3072 3073 3071 3059 3049 3051 3054 3055 3057 3058 3058 3060 3059 3060 3062 3063 3064 3062 3059 3058
3090 3090 3091 3092 3093 3093 3094 3095 3096 3097 3097 3097 3098 3099 3095 3088 3086 3088 3089 3090 3091 3092 3092 3092 3091 3090 3089 3090 3090 3092 3093 3092 3091 3091 3091 3090 3090 3090 3090 3090 3091 3090 3091 3091 3089 3087 3086 3081 3079 3082 3082 3082 3083 3083 3084 3083 3082 3081 3081 3082 3080 3079 3081 3079 3077 3074 3072 3072 3069 3067 3061 3051 3048 3050 3051 3054 3055 3055 3056 3056 3055 3056 3057 3058 3057 3055 3055 3054
3086 3086 3087 3088 3088 3089 3090 3091 3091 3092 3093 3093 3094 3091 3084 3081 3083 3085 3086 3087 3088 3088 3088 3088 3088 3086 3085 3085 3086 3087 3088 3088 3089 3088 3087 3087 3086 3085 3085 3086 3087 3086 3086 3087 3086 3086 3083 3078 3076 3078 3078 3079 3080 3080 3081 3081 3080 3078 3077 3076 3075 3076 3077 3075 3073 3072 3073 3070 3063 3059 3054 3048 3047 3046 3046 3051 3052 3053 3054 3053 3053 3054 3053 3052 3051 3051 3051 3049
3081 3081 3082 3084 3084 3084 3085 3086 3087 3088 3088 3089 3089 3083 3078 3079 3082 3083 3084 3084 3085 3085 3086 3085 3084 3083 3083 3082 3082 3083 3084 3085 3086 3085 3085 3085 3083 3081 3081 3082 3083 3082 3082 3083 3082 3081 3079 3073 3072 3073 3073 3074 3075 3075 3076 3076 3075 3075 3074 3073 3073 3073 3072 3072 3071 3069 3070 3067 3059 3054 3051 3048 3049 3045 3042 3047 3050 3050 3051 3051 3051 3051 3049 3048 3048 3047 3047 3045
3076 3076 3077 3078 3079 3078 3079 3080 3081 3082 3083 3083 3080 3076 3075 3076 3077 3080 3081 3082 3082 3083 3083 3082 3080 3080 3080 3079 3079 3080 3081 3081 3082 3082 3082 3081 3079 3077 3077 3078 3079 3078 3079 3079 3077 3077 3075 3070 3067 3068 3067 3068 3070 3069 3068 3069 3070 3070 3070 3070 3070 3069 3067 3068 3068 3066 3066 3063 3056 3052 3048 3046 3047 3043 3042 3046 3048 3047 3047 3047 3047 3047 3047 3046 3045 3044 3043 3042
3071 3071 3071 3073 3074 3073 3074 3075 3075 3077 3077 3074 3072 3070 3070 3070 3072 3075 3077 3077 3078 3079 3078 3078 3078 3077 3077 3077 3076 3077 3078 3078 3078 3079 3078 3077 3075 3073 3074 3075 3075 3075 3075 3076 3074 3073 3073 3069 3065 3064 3064 3063 3064 3063 3061 3063 3066 3066 3066 3066 3066 3065 3064 3064 3063 3061 3061 3058 3053 3051 3047 3043 3042 3040 3042 3045 3044 3042 3042 3042 3042 3043 3043 3042 3042 3041 3041 3040
3066 3066 3066 3068 3069 3069 3070 3071 3071 3071 3069 3067 3066 3066 3066 3067 3068 3070 3072 3073 3074 3074 3074 3074 3075 3074 3073 3073 3073 3074 3074 3074 3075 3075 3074 3073 3072 3070 3071 3072 3072 3072 3071 3071 3071 3069 3070 3067 3061 3061 3062 3059 3058 3058 3057 3059 3062 3061 3061 3061 3061 3061 3061 3060 3058 3058 3058 3056 3053 3050 3045 3040 3039 3040 3041 3040 3037 3037 3039 3038 3036 3036 3036 3036 3037 3037 3038 3037
3061 3060 3060 3063 3063 3064 3065 3065 3064 3064 3062 3062 3063 3062 3063 3065 3065 3065 3066 3068 3069 3069 3070 3070 3070 3070 3069 3069 3069 3070 3070 3070 3070 3070 3069 3068 3068 3068 3068 3068 3068 3068 3067 3066 3066 3065 3064 3061 3056 3057 3057 3053 3053 3055 3056 3057 3058 3057 3057 3058 3058 3058 3058 3057 3053 3051 3052 3050 3048 3046 3040 3035 3038 3041 3038 3033 3031 3033 3035 3034 3031 3030 3030 3030 3031 3031 3032 3032
3055 3055 3056 3058 3058 3059 3059 3058 3058 3059 3058 3057 3058 3059 3061 3061 3061 3062 3062 3063 3064 3065 3066 3066 3065 3066 3066 3066 3065 3066 3066 3065 3064 3065 3063 3063 3064 3064 3064 3065 3064 3064 3063 3061 3060 3060 3058 3055 3052 3051 3051 3050 3051 3053 3053 3053 3053 3054 3053 3053 3054 3054 3054 3052 3047 3045 3046 3043 3042 3042 3035 3029 3035 3039 3032 3027 3029 3030 3028 3029 3029 3028 3027 3027 3026 3026 3026 3025
3050 3051 3052 3053 3053 3054 3054 3053 3053 3054 3053 3054 3055 3056 3058 3058 3057 3058 3058 3059 3060 3061 3061 3061 3061 3062 3061 3062 3062 3062 3062 3060 3058 3059 3059 3058 3059 3059 3059 3060 3059 3058 3058 3056 3055 3055 3053 3050 3048 3046 3045 3046 3047 3048 3047 3048 3049 3048 3047 3049 3049 3047 3048 3046 3043 3042 3041 3037 3038 3038 3030 3025 3031 3033 3027 3024 3027 3026 3023 3023 3024 3024 3024 3023 3022 3022 3021 3020
3047 3047 3047 3048 3049 3049 3049 3048 3048 3049 3050 3051 3052 3052 3054 3054 3053 3054 3054 3055 3056 3057 3057 3057 3057 3058 3057 3058 3058 3058 3058 3057 3054 3054 3055 3054 3054 3054 3054 3055 3055 3053 3053 3052 3051 3051 3049 3046 3045 3044 3043 3043 3043 3042 3042 3042 3044 3043 3043 3044 3044 3043 3044 3042 3039 3038 3035 3032 3034 3031 3023 3023 3028 3029 3025 3022 3022 3021 3020 3018 3017 3017 3017 3017 3017 3017 3016 3014
3043 3043 3044 3044 3045 3045 3044 3044 3045 3045 3046 3048 3048 3049 3050 3049 3049 3051 3051 3052 3052 3053 3053 3052 3053 3053 3053 3054 3053 3053 3054 3054 3051 3050 3051 3050 3049 3050 3050 3050 3051 3049 3049 3049 3049 3048 3046 3044 3043 3043 3042 3040 3039 3039 3038 3038 3039 3040 3040 3041 3041 3041 3041 3038 3036 3034 3029 3027 3028 3025 3020 3021 3025 3025 3024 3022 3019 3017 3016 3015 3012 3011 3009 3009 3010 3010 3009 3009
3039 3040 3040 3041 3041 3041 3041 3041 3042 3042 3043 3044 3044 3044 3045 3044 3045 3047 3047 3047 3048 3048 3048 3048 3049 3049 3049 3049 3048 3047 3049 3050 3049 3047 3047 3046 3046 3046 3046 3046 3047 3047 3046 3045 3045 3045 3043 3040 3040 3040 3038 3037 3036 3035 3036 3036 3035 3035 3036 3037 3037 3037 3036 3035 3032 3028 3025 3022 3021 3020 3019 3018 3019 3021 3019 3019 3018 3015 3012 3011 3010 3008 3006 3005 3004 3003 3002 3002
3036 3036 3036 3037 3037 3037 3037 3038 3039 3039 3040 3041 3040 3040 3041 3041 3042 3043 3043 3043 3043 3044 3044 3044 3044 3045 3045 3044 3044 3044 3044 3044 3044 3042 3042 3042 3042 3041 3041 3042 3043 3043 3042 3041 3041 3041 3039 3036 3036 3036 3034 3033 3033 3032 3033 3032 3030 3031 3031 3031 3032 3032 3031 3030 3026 3022 3023 3019 3013 3016 3018 3014 3013 3016 3014 3012 3014 3012 3009 3008 3006 3004 3003 3001 2999 2998 2996 2995
3031 3031 3032 3033 3033 3033 3034 3034 3035 3036 3036 3037 3036 3036 3037 3037 3038 3039 3039 3039 3039 3040 3040 3039 3039 3040 3040 3041 3041 3040 3040 3040 3039 3039 3038 3038 3038 3038 3037 3038 3038 3038 3038 3038 3036 3037 3035 3031 3031 3031 3029 3029 3029 3028 3028 3028 3027 3027 3027 3027 3027 3026 3025 3022 3019 3019 3021 3016 3010 3012 3014 3009 3008 3011 3009 3007 3007 3006 3005 3003 3001 3000 2997 2995 2993 2992 2991 2990
3027 3027 3028 3029 3029 3030 3030 3031 3031 3032 3033 3033 3032 3032 3032 3032 3033 3034 3035 3034 3034 3035 3036 3035 3035 3035 3036 3037 3037 3037 3037 3036 3035 3035 3035 3034 3035 3034 3033 3033 3033 3033 3033 3033 3033 3033 3031 3027 3027 3026 3024 3024 3025 3024 3024 3024 3022 3021 3022 3022 3022 3020 3018 3016 3015 3015 3016 3011 3008 3010 3008 3004 3005 3005 3003 3002 3001 3001 3000 2998 2997 2995 2993 2991 2988 2986 2985 2984
3022 3022 3023 3024 3024 3025 3026 3027 3027 3027 3028 3029 3027 3027 3028 3028 3028 3029 3030 3030 3029 3029 3031 3030 3029 3030 3030 3032 3032 3031 3032 3032 3031 3031 3031 3030 3030 3030 3030 3029 3028 3028 3029 3028 3029 3029 3027 3024 3024 3023 3020 3019 3021 3021 3020 3020 3018 3015 3014 3015 3015 3012 3011 3011 3010 3009 3008 3004 3004 3004 3001 2998 2999 2999 2997 2997 2996 2995 2994 2993 2992 2991 2989 2988 2986 2984 2982 2980
3017 3018 3019 3019 3020 3021 3021 3022 3023 3023 3023 3023 3023 3023 3025 3024 3024 3024 3024 3025 3024 3025 3026 3025 3024 3025 3026 3027 3027 3027 3027 3028 3027 3027 3026 3026 3026 3026 3026 3025 3024 3024 3024 3025 3025 3025 3025 3021 3020 3021 3017 3013 3016 3017 3015 3014 3012 3008 3008 3007 3006 3004 3004 3003 3003 3002 3002 2999 2998 2998 2995 2993 2993 2993 2993 2992 2991 2990 2989 2988 2987 2986 2985 2984 2982 2980 2979 2976
3013 3014 3015 3015 3015 3016 3016 3017 3018 3018 3018 3018 3019 3020 3020 3020 3020 3020 3020 3020 3020 3020 3021 3021 3020 3021 3021 3022 3023 3023 3023 3023 3023 3023 3022 3022 3022 3022 3021 3021 3022 3021 3020 3021 3020 3020 3021 3018 3017 3019 3013 3008 3012 3013 3009 3010 3007 3000 2999 3000 2999 2998 2997 2995 2995 2996 2996 2995 2993 2991 2989 2988 2988 2989 2989 2988 2986 2985 2984 2984 2984 2983 2982 2980 2977 2976 2975 2973